Quakertown, PA

8:35 PM EDT on June 27, 2017 (GMT -0400)
Quakertown

Weather History for KUKT - October, 2012

Change the Weather History Date:

Wednesday, October 24, 2012

  Actual Average (KABE) Record (KABE)
Temperature  
Mean Temperature 62 °F -  
Max Temperature 73 °F 60 °F 81 °F (2001)
Min Temperature 50 °F 39 °F 22 °F (1969)
Degree Days  
Heating Degree Days 4    
Growing Degree Days 12 (Base 50)    
Moisture  
Dew Point 54 °F    
Average Humidity 83    
Maximum Humidity 100    
Minimum Humidity 57    
Precipitation  
Precipitation 0.00 in - - ()
Sea Level Pressure  
Sea Level Pressure 30.12 in    
Wind  
Wind Speed 1 mph (East)    
Max Wind Speed 7 mph    
Max Gust Speed -    
Visibility 8 miles    
Events      
Averages and records for this station are not official NWS values.
T = Trace of Precipitation, MM = Missing Value Source: NWS Daily Summary

Daily Weather History Graph

Daily Weather History Graph

Search for Another Location

Airport or City:

Trip Planner

Search our weather history database for the weather conditions in past years. The results will help you decide how hot, cold, wet, or windy it might be!

Date:

Astronomy

Oct. 24, 2012 Rise Set
Actual Time 7:22 AM EDT 6:07 PM EDT
Civil Twilight 6:54 AM EDT 6:35 PM EDT
Nautical Twilight 6:22 AM EDT 7:07 PM EDT
Astronomical Twilight 5:51 AM EDT 7:39 PM EDT
Moon 3:23 PM EDT (10/24) 2:14 AM EDT (10/24)
Length of Visible Light 11h 40m
Length of Day
10h 45m
Waxing Gibbous, 76% of the Moon is Illuminated
Oct 24
Waxing Gibbous
Oct 29
Full
Nov 6
Last Quarter
Nov 13
New
Nov 20
First Quarter

Hourly Weather History & Observations

Time (EDT) Temp. Dew Point Humidity Pressure Visibility Wind Dir Wind Speed Gust Speed Precip Events Conditions
12:15 AM 53.6 °F 51.8 °F 94% 30.09 in 10.0 mi Calm Calm - N/A   Clear
12:35 AM 53.6 °F 51.8 °F 94% 30.09 in 9.0 mi Calm Calm - N/A   Clear
12:55 AM 51.8 °F 50.0 °F 94% 30.09 in 10.0 mi Calm Calm - N/A   Clear
1:15 AM 50.0 °F 50.0 °F 100% 30.09 in 5.0 mi Calm Calm - N/A   Clear
1:35 AM 50.0 °F 50.0 °F 100% 30.09 in 7.0 mi Calm Calm - N/A   Scattered Clouds
1:55 AM 50.0 °F 50.0 °F 100% 30.09 in 8.0 mi Calm Calm - N/A   Partly Cloudy
2:15 AM 51.8 °F 50.0 °F 94% 30.09 in 9.0 mi Calm Calm - N/A   Clear
2:35 AM 50.0 °F 48.2 °F 94% 30.09 in 10.0 mi Calm Calm - N/A   Clear
2:55 AM 50.0 °F 48.2 °F 94% 30.10 in 8.0 mi Calm Calm - N/A   Clear
3:15 AM 50.0 °F 48.2 °F 94% 30.10 in 9.0 mi Calm Calm - N/A   Clear
3:35 AM 50.0 °F 48.2 °F 94% 30.10 in 6.0 mi Calm Calm - N/A   Clear
3:55 AM 50.0 °F 48.2 °F 94% 30.10 in 7.0 mi Calm Calm - N/A   Clear
4:15 AM 50.0 °F 48.2 °F 94% 30.10 in 6.0 mi Calm Calm - N/A   Clear
4:35 AM 50.0 °F 48.2 °F 94% 30.11 in 7.0 mi Calm Calm - N/A   Scattered Clouds
4:55 AM 50.0 °F 48.2 °F 94% 30.11 in 8.0 mi Calm Calm - N/A   Mostly Cloudy
5:15 AM 50.0 °F 48.2 °F 94% 30.11 in 7.0 mi Calm Calm - N/A   Mostly Cloudy
5:35 AM 50.0 °F 50.0 °F 100% 30.12 in 6.0 mi Calm Calm - N/A   Scattered Clouds
5:55 AM 50.0 °F 50.0 °F 100% 30.12 in 7.0 mi Calm Calm - N/A   Mostly Cloudy
6:15 AM 50.0 °F 50.0 °F 100% 30.12 in 8.0 mi Calm Calm - N/A   Mostly Cloudy
6:35 AM 50.0 °F 50.0 °F 100% 30.13 in 7.0 mi Calm Calm - N/A   Scattered Clouds
6:55 AM 50.0 °F 50.0 °F 100% 30.13 in 7.0 mi Calm Calm - N/A   Clear
7:15 AM 50.0 °F 50.0 °F 100% 30.13 in 7.0 mi Calm Calm - N/A   Partly Cloudy
7:35 AM 50.0 °F 48.2 °F 94% 30.14 in 5.0 mi Calm Calm - N/A   Partly Cloudy
7:55 AM 50.0 °F 48.2 °F 94% 30.14 in 3.0 mi Calm Calm - N/A   Mostly Cloudy
8:15 AM 50.0 °F 50.0 °F 100% 30.15 in 5.0 mi Calm Calm - N/A   Scattered Clouds
8:35 AM 50.0 °F 50.0 °F 100% 30.15 in 5.0 mi Calm Calm - N/A   Mostly Cloudy
8:55 AM 55.4 °F 53.6 °F 94% 30.15 in 7.0 mi Calm Calm - N/A   Overcast
9:15 AM 57.2 °F 53.6 °F 88% 30.15 in 6.0 mi Calm Calm - N/A   Overcast
9:35 AM 57.2 °F 53.6 °F 88% 30.15 in 6.0 mi Calm Calm - N/A   Mostly Cloudy
9:55 AM 59.0 °F 53.6 °F 82% 30.15 in 6.0 mi Calm Calm - N/A   Partly Cloudy
10:35 AM 60.8 °F 55.4 °F 82% 30.15 in 8.0 mi Calm Calm - N/A   Clear
10:55 AM 62.6 °F 55.4 °F 77% 30.14 in 8.0 mi Calm Calm - N/A   Clear
11:15 AM 62.6 °F 55.4 °F 77% 30.14 in 9.0 mi Calm Calm - N/A   Clear
11:35 AM 64.4 °F 55.4 °F 73% 30.14 in 9.0 mi Calm Calm - N/A   Clear
11:55 AM 66.2 °F 57.2 °F 73% 30.13 in 9.0 mi Calm Calm - N/A   Clear
12:15 PM 66.2 °F 57.2 °F 73% 30.13 in 9.0 mi Calm Calm - N/A   Clear
12:35 PM 66.2 °F 57.2 °F 73% 30.12 in 10.0 mi Calm Calm - N/A   Clear
12:50 PM - - N/A% 30.11 in - Calm Calm - N/A   Unknown
1:15 PM 69.8 °F 57.2 °F 64% 30.11 in 10.0 mi Calm Calm - N/A   Clear
1:30 PM 71.6 °F 57.2 °F 60% 30.10 in 9.0 mi Calm Calm - N/A   Clear
1:55 PM 71.6 °F 57.2 °F 60% 30.10 in 10.0 mi Calm Calm - N/A   Clear
2:10 PM 71.6 °F 57.2 °F 60% 30.09 in 10.0 mi Calm Calm - N/A   Clear
2:30 PM 73.4 °F 57.2 °F 57% 30.08 in 10.0 mi Calm Calm - N/A   Clear
2:55 PM 73.4 °F 57.2 °F 57% 30.08 in 10.0 mi SE 3.5 mph - N/A   Unknown
3:10 PM 73.4 °F 57.2 °F 57% 30.08 in 10.0 mi East 4.6 mph - N/A   Unknown
3:35 PM 73.4 °F 57.2 °F 57% 30.08 in 10.0 mi SE 3.5 mph - N/A   Clear
3:50 PM 73.4 °F 57.2 °F 57% 30.08 in 10.0 mi Calm Calm - N/A   Clear
4:15 PM 73.4 °F 57.2 °F 57% 30.09 in 10.0 mi Calm Calm - N/A   Clear
4:30 PM 73.4 °F 57.2 °F 57% 30.08 in 10.0 mi ESE 5.8 mph - N/A   Clear
4:50 PM 73.4 °F 57.2 °F 57% 30.08 in 10.0 mi ESE 5.8 mph - N/A   Clear
5:10 PM 71.6 °F 57.2 °F 60% 30.09 in 10.0 mi Calm Calm - N/A   Clear
5:35 PM 69.8 °F 57.2 °F 64% 30.09 in 10.0 mi Calm Calm - N/A   Clear
5:50 PM 68.0 °F 57.2 °F 68% 30.10 in 10.0 mi ESE 4.6 mph - N/A   Clear
6:15 PM 68.0 °F 57.2 °F 68% 30.11 in 10.0 mi Calm Calm - N/A   Clear
6:30 PM 66.2 °F 57.2 °F 73% 30.11 in 10.0 mi Calm Calm - N/A   Clear
6:55 PM 66.2 °F 57.2 °F 73% 30.12 in 10.0 mi Calm Calm - N/A   Clear
7:10 PM 64.4 °F 57.2 °F 77% 30.14 in 10.0 mi East 6.9 mph - N/A   Clear
7:35 PM 62.6 °F 57.2 °F 82% 30.14 in 9.0 mi East 4.6 mph - N/A   Clear
7:50 PM 62.6 °F 57.2 °F 82% 30.15 in 8.0 mi East 4.6 mph - N/A   Clear
8:15 PM 60.8 °F 55.4 °F 82% 30.15 in 7.0 mi East 3.5 mph - N/A   Clear
8:30 PM 59.0 °F 55.4 °F 88% 30.15 in 6.0 mi ENE 3.5 mph - N/A   Clear
8:55 PM 59.0 °F 55.4 °F 88% 30.16 in 5.0 mi Calm Calm - N/A   Scattered Clouds
9:15 PM 59.0 °F 55.4 °F 88% 30.16 in 5.0 mi Calm Calm - N/A   Overcast
9:30 PM 59.0 °F 55.4 °F 88% 30.17 in 5.0 mi Calm Calm - N/A   Overcast
10:10 PM 59.0 °F 55.4 °F 88% 30.18 in 5.0 mi Calm Calm - N/A   Overcast
10:35 PM 59.0 °F 55.4 °F 88% 30.18 in 4.0 mi East 3.5 mph - N/A   Overcast
10:50 PM 57.2 °F 55.4 °F 94% 30.19 in 4.0 mi Calm Calm - N/A   Unknown
11:15 PM 57.2 °F 55.4 °F 94% 30.19 in 4.0 mi East 6.9 mph - N/A   Overcast
11:30 PM 57.2 °F 55.4 °F 94% 30.19 in 4.0 mi East 5.8 mph - N/A   Overcast
11:55 PM 57.2 °F 55.4 °F 94% 30.19 in 4.0 mi Calm Calm - N/A   Overcast